South Bend, IN

10:19 AM EDT on March 24, 2017 (GMT -0400)
South Bend Regional

Weather History for KSBN - April, 2014

Change the Weather History Date:

Tuesday, April 8, 2014

  Actual Average Record
Temperature  
Mean Temperature 44 °F 46 °F  
Max Temperature 55 °F 57 °F 79 °F (1931)
Min Temperature 32 °F 36 °F 11 °F (1972)
Degree Days  
Heating Degree Days 21 19  
Month to date heating degree days 173 162  
Since 1 July heating degree days 6432 5706  
Cooling Degree Days 0 0  
Month to date cooling degree days 0 0  
Year to date cooling degree days 0 1  
Moisture  
Dew Point 33 °F    
Average Humidity 66    
Maximum Humidity 89    
Minimum Humidity 43    
Precipitation  
Precipitation T in 0.11 in 1.30 in (1929)
Month to date precipitation 1.26 0.80  
Year to date precipitation 8.89 7.46  
Snow  
Snow 0.00 in 0.10 in 0.80 in (1957)
Month to date snowfall 0.7  
Since 1 July snowfall 65.9  
Snow Depth -    
Sea Level Pressure  
Sea Level Pressure 29.75 in    
Wind  
Wind Speed 9 mph (NW)    
Max Wind Speed 20 mph    
Max Gust Speed 23 mph    
Visibility 10 miles    
Events      
T = Trace of Precipitation, MM = Missing Value Source: NWS Daily Summary

Daily Weather History Graph

Daily Weather History Graph

Search for Another Location

Airport or City:

Trip Planner

Search our weather history database for the weather conditions in past years. The results will help you decide how hot, cold, wet, or windy it might be!

Date:

Astronomy

Apr. 08, 2014 Rise Set
Actual Time 7:16 AM EDT 8:18 PM EDT
Civil Twilight 6:48 AM EDT 8:46 PM EDT
Nautical Twilight 6:14 AM EDT 9:20 PM EDT
Astronomical Twilight 5:38 AM EDT 9:56 PM EDT
Moon 2:06 PM EDT (4/8) 3:34 AM EDT (4/8)
Length of Visible Light 13h 58m
Length of Day
13h 01m
Waxing Gibbous, 62% of the Moon is Illuminated
Apr 8
Waxing Gibbous
Apr 15
Full
Apr 22
Last Quarter
Apr 29
New
May 6
First Quarter

Hourly Weather History & Observations

Time (EDT) Temp. Windchill Dew Point Humidity Pressure Visibility Wind Dir Wind Speed Gust Speed Precip Events Conditions
12:54 AM 37.9 °F 34.4 °F 32.0 °F 79% 29.62 in 10.0 mi WSW 4.6 mph - N/A   Mostly Cloudy
1:54 AM 37.9 °F 32.7 °F 30.9 °F 76% 29.62 in 10.0 mi West 6.9 mph - N/A   Scattered Clouds
2:54 AM 39.0 °F 32.3 °F 32.0 °F 76% 29.62 in 10.0 mi WNW 10.4 mph - N/A   Partly Cloudy
3:54 AM 37.9 °F 30.9 °F 30.9 °F 76% 29.62 in 10.0 mi WNW 10.4 mph - N/A   Clear
4:54 AM 37.0 °F 34.5 °F 30.0 °F 76% 29.64 in 10.0 mi West 3.5 mph - N/A   Clear
5:54 AM 36.0 °F - 30.0 °F 79% 29.65 in 10.0 mi Calm Calm - N/A   Partly Cloudy
6:54 AM 35.1 °F 32.2 °F 28.9 °F 78% 29.66 in 10.0 mi WSW 3.5 mph - N/A   Mostly Cloudy
7:54 AM 34.0 °F - 30.0 °F 85% 29.69 in 10.0 mi Calm Calm - N/A   Mostly Cloudy
8:54 AM 41.0 °F 35.8 °F 33.1 °F 73% 29.70 in 10.0 mi NNW 8.1 mph - N/A   Mostly Cloudy
9:54 AM 45.0 °F 39.7 °F 35.1 °F 68% 29.72 in 10.0 mi NNW 10.4 mph - N/A   Overcast
10:54 AM 46.9 °F - 36.0 °F 66% 29.73 in 10.0 mi NNW 12.7 mph - N/A   Overcast
11:54 AM 44.1 °F 39.0 °F 36.0 °F 73% 29.76 in 10.0 mi NW 9.2 mph - 0.00 in   Overcast
12:54 PM 48.0 °F - 37.9 °F 68% 29.77 in 10.0 mi NW 8.1 mph - N/A   Scattered Clouds
1:54 PM 51.1 °F - 36.0 °F 56% 29.78 in 10.0 mi WNW 9.2 mph 17.3 mph N/A   Partly Cloudy
2:54 PM 55.0 °F - 34.0 °F 45% 29.77 in 10.0 mi NNW 11.5 mph - N/A   Clear
3:54 PM 54.0 °F - 35.1 °F 49% 29.79 in 10.0 mi NNW 16.1 mph 21.9 mph N/A   Scattered Clouds
4:54 PM 53.1 °F - 36.0 °F 52% 29.80 in 10.0 mi North 18.4 mph - N/A   Clear
5:54 PM 54.0 °F - 34.0 °F 47% 29.81 in 10.0 mi NW 13.8 mph - N/A   Clear
6:54 PM 52.0 °F - 33.1 °F 49% 29.83 in 10.0 mi NNW 17.3 mph - N/A   Clear
7:54 PM 48.9 °F - 34.0 °F 56% 29.85 in 10.0 mi North 11.5 mph - N/A   Clear
8:54 PM 43.0 °F 38.8 °F 34.0 °F 71% 29.87 in 10.0 mi NW 6.9 mph - N/A   Clear
9:54 PM 39.9 °F 34.5 °F 32.0 °F 73% 29.90 in 10.0 mi NW 8.1 mph - N/A   Clear
10:54 PM 37.9 °F 32.7 °F 32.0 °F 79% 29.91 in 10.0 mi NW 6.9 mph - N/A   Clear
11:54 PM 37.0 °F 31.6 °F 32.0 °F 82% 29.92 in 7.0 mi NW 6.9 mph - N/A   Clear